www.pogodaiklimat.ru
ПОГОДА в Тирана аэропорту

Архив погоды в Тирана аэропорту (Албания)

Время
(UTC), дата
16 23.09
17 23.09
18 23.09
19 23.09
20 23.09
21 23.09
22 23.09
23 23.09
00 24.09
01 24.09
02 24.09
03 24.09
04 24.09
05 24.09
06 24.09
07 24.09
08 24.09
09 24.09
10 24.09
11 24.09
12 24.09
13 24.09
14 24.09
15 24.09
16 24.09
17 24.09
18 24.09
19 24.09
20 24.09
21 24.09
22 24.09
23 24.09
00 25.09
01 25.09
02 25.09
03 25.09
04 25.09
05 25.09
06 25.09
07 25.09
08 25.09
09 25.09
10 25.09
11 25.09
12 25.09
13 25.09
14 25.09
15 25.09
16 25.09
17 25.09
18 25.09
19 25.09
20 25.09
21 25.09
22 25.09
23 25.09
00 26.09
01 26.09
02 26.09
03 26.09
04 26.09
05 26.09
06 26.09
07 26.09
08 26.09
09 26.09
10 26.09
11 26.09
12 26.09
13 26.09
14 26.09
15 26.09
16 26.09
17 26.09
18 26.09
19 26.09
20 26.09
21 26.09
22 26.09
23 26.09
00 27.09
01 27.09
02 27.09
03 27.09
04 27.09
05 27.09
06 27.09
07 27.09
08 27.09
09 27.09
10 27.09
11 27.09
12 27.09
13 27.09
14 27.09
15 27.09
16 27.09
17 27.09
18 27.09
19 27.09
20 27.09
21 27.09
22 27.09
23 27.09
00 28.09
01 28.09
02 28.09
03 28.09
04 28.09
05 28.09
06 28.09
07 28.09
08 28.09
09 28.09
10 28.09
11 28.09
12 28.09
13 28.09
14 28.09
15 28.09
16 28.09
17 28.09
18 28.09
19 28.09
20 28.09
21 28.09
22 28.09
23 28.09
00 29.09
01 29.09
02 29.09
03 29.09
04 29.09
05 29.09
06 29.09
07 29.09
08 29.09
09 29.09
10 29.09
11 29.09
12 29.09
13 29.09
14 29.09
15 29.09
16 29.09
17 29.09
18 29.09
19 29.09
20 29.09
21 29.09
22 29.09
23 29.09
00 30.09
01 30.09
02 30.09
03 30.09
04 30.09
05 30.09
06 30.09
07 30.09
08 30.09
09 30.09
10 30.09
11 30.09
12 30.09
13 30.09
14 30.09
15 30.09
Ветер
(напр.,м/с)
Видим. Явления Облачность Т
(С)
Тd
(С)
f
(%)
Тe
(С)
Тes
(С)
Комфортность P
(гПа)
Po
(гПа)
Тmin
(С)
Tmax
(С)
R
(мм)
R24
(мм)
S
(см)
СЗ 5 10 км нет нижн обл +21.0 +4.0 33 +22 +22 комфорт 1016.0 1005.6
СЗ 3 10 км нет нижн обл +18.0 +7.0 49 +18 +18 1017.0 1006.5
штиль 0 10 км нет нижн обл +16.0 +7.0 55 +14 +14 1018.0 1007.4
Ю 2 10 км нет нижн обл +12.0 +8.0 76 +11 +11 1018.0 1007.2
нст 1 10 км нет нижн обл +12.0 +8.0 76 +12 +12 1018.0 1007.2
Ю 2 10 км нет нижн обл +11.0 +7.0 76 +10 +10 1019.0 1008.2
Ю 2 10 км нет нижн обл +11.0 +7.0 76 +10 +10 1019.0 1008.2
ЮВ 2 10 км нет нижн обл +9.0 +6.0 81 +7 +7 1019.0 1008.1
ЮВ 2 10 км нет нижн обл +9.0 +6.0 81 +7 +7 1019.0 1008.1
Ю 2 10 км нет нижн обл +9.0 +5.0 76 +7 +7 1019.0 1008.1
Ю 2 10 км нет нижн обл +8.0 +5.0 81 +6 +6 1019.0 1008.1
Ю 2 10 км нет нижн обл +8.0 +5.0 81 +6 +6 1019.0 1008.1
нст 2 10 км нет нижн обл +7.0 +5.0 87 +5 +5 1020.0 1009.0
Ю 2 10 км нет нижн обл +8.0 +5.0 81 +6 +6 1020.0 1009.1
Ю 1 10 км нет нижн обл +10.0 +6.0 76 +10 +10 1020.0 1009.1
Ю 2 10 км нет нижн обл +15.0 +7.0 59 +15 +15 1021.0 1010.3
ЮВ 2 10 км нет нижн обл +19.0 +7.0 46 +20 +20 1021.0 1010.5
нст 1 10 км нет нижн обл +22.0 +5.0 33 +22 +22 комфорт 1021.0 1010.6
нст 2 10 км нет нижн обл +22.0 +3.0 29 +22 +22 комфорт 1021.0 1010.6
нст 2 10 км нет нижн обл +24.0 +3.0 25 +23 +23 комфорт 1021.0 1010.6
З 5 10 км нет нижн обл +23.0 +4.0 29 +23 +23 комфорт 1020.0 1009.6
З 5 10 км нет нижн обл +25.0 +5.0 28 +25 +25 комфорт 1020.0 1009.7
З 4 10 км нет нижн обл +24.0 +2.0 24 +23 +23 комфорт 1020.0 1009.6
СЗ 3 10 км нет нижн обл +22.0 +8.0 41 +23 +23 комфорт 1020.0 1009.6
С 2 10 км нет нижн обл +22.0 +9.0 43 +23 +23 комфорт 1020.0 1009.6
СЗ 2 10 км нет нижн обл +18.0 +9.0 56 +19 +19 1020.0 1009.4
нст 2 10 км нет нижн обл +17.0 +9.0 59 +17 +17 1020.0 1009.4
ЮВ 3 10 км нет нижн обл +15.0 +9.0 67 +14 +14 1020.0 1009.3
ЮВ 2 10 км нет нижн обл +12.0 +7.0 71 +11 +11 1020.0 1009.2
Ю 2 10 км нет нижн обл +11.0 +7.0 76 +10 +10 1020.0 1009.2
Ю 2 10 км нет нижн обл +11.0 +6.0 71 +10 +10 1020.0 1009.2
ЮВ 2 10 км нет нижн обл +10.0 +6.0 76 +9 +9 1020.0 1009.1
Ю 2 10 км нет нижн обл +10.0 +6.0 76 +9 +9 1020.0 1009.1
Ю 2 10 км нет нижн обл +10.0 +5.0 71 +9 +9 1020.0 1009.1
нст 1 10 км нет нижн обл +10.0 +5.0 71 +10 +10 1019.0 1008.1
Ю 2 10 км нет нижн обл +9.0 +5.0 76 +7 +7 1019.0 1008.1
ЮВ 2 10 км нет нижн обл +9.0 +5.0 76 +7 +7 1019.0 1008.1
Ю 2 10 км нет нижн обл +9.0 +5.0 76 +7 +7 1019.0 1008.1
Ю 2 10 км нет нижн обл +12.0 +7.0 71 +11 +11 1019.0 1008.2
Ю 3 10 км нет нижн обл +17.0 +9.0 59 +17 +17 1019.0 1008.4
Ю 3 10 км 2/0 2220 м
[Ac]
+21.0 +7.0 40 +22 +22 комфорт 1019.0 1008.6
Ю 4 10 км 5/0 2250 м
[Ac]
+24.0 +6.0 31 +24 +24 комфорт 1019.0 1008.7
Ю 3 10 км 5/2 1800 м
[Ac]
+24.0 +3.0 25 +23 +23 комфорт 1019.0 1008.6
ЮВ 3 10 км 5/0 2550 м
[Ac]
+24.0 +4.0 27 +24 +24 комфорт 1018.0 1007.7
ЮВ 3 10 км 5/2 1800 м
[Ac]
+24.0 +4.0 27 +24 +24 комфорт 1017.0 1006.7
ЮВ 3 10 км 5/0 2100 м
[Ac]
+26.0 +6.0 28 +26 +26 жарко 1017.0 1006.7
Ю 4 10 км 8/0 2100 м
[Ac]
+26.0 +7.0 30 +26 +26 жарко 1016.0 1005.8
Ю 4 10 км 8/0 2220 м
[Ac]
+25.0 +7.0 32 +25 +25 комфорт 1016.0 1005.7
З 3 10 км 8/0 2100 м
[Ac]
+23.0 +9.0 41 +24 +24 комфорт 1016.0 1005.7
ЮЗ 3 10 км 8/0 2220 м
[Ac]
+22.0 +10.0 46 +24 +24 комфорт 1016.0 1005.6
нст 2 10 км 8/0 2040 м
[Ac]
+20.0 +12.0 60 +22 +22 комфорт 1016.0 1005.6
штиль 0 10 км 10/10 1500 м +20.0 +12.0 60 1017.0 1006.6
нст 1 10 км 8/5 1860 м
[Ac]
+19.0 +11.0 60 +21 +21 комфорт 1016.0 1005.5
нст 1 10 км 8/5 1710 м
[Ac]
+19.0 +12.0 64 +21 +21 комфорт 1016.0 1005.5
Ю 3 10 км 10/8 1440 м
[Ac]
+18.0 +11.0 64 +18 +18 1015.0 1004.5
Ю 3 10 км 8/8 1290 м
[Ac]
+19.0 +11.0 60 +20 +20 1015.0 1004.5
ЮВ 3 10 км 8/8 1110 м +20.0 +10.0 53 +22 +22 комфорт 1015.0 1004.6
Ю 3 10 км 8/8 1080 м +19.0 +10.0 56 +20 +20 1015.0 1004.5
Ю 3 10 км 10/8 990 м
[Ac]
+20.0 +10.0 53 +22 +22 комфорт 1014.0 1003.6
Ю 3 10 км 10/5 960 м
[Ac]
+19.0 +10.0 56 +20 +20 1014.0 1003.5
Ю 3 10 км 8/5 1170 м
[Ac]
+19.0 +11.0 60 +20 +20 1013.0 1002.6
ЮВ 3 10 км 10/8 930 м
[Ac]
+20.0 +11.0 56 +22 +22 комфорт 1013.0 1002.6
Ю 3 10 км 8/8 1200 м +22.0 +11.0 50 +24 +24 комфорт 1013.0 1002.7
ЮВ 3 10 км 8/8 990 м +23.0 +14.0 57 +26 +26 жарко 1013.0 1002.7
ЮВ 4 10 км 10/10 1110 м +25.0 +13.0 47 +27 +27 жарко 1013.0 1002.8
ЮВ 4 10 км слаб. дождь 10/10 900 м
[Ns]
+23.0 +14.0 57 +26 +26 жарко 1013.0 1002.7
Ю 5 10 км слаб. дождь 8/8 900 м
[Ns]
+20.0 +16.0 78 +22 +22 комфорт 1013.0 1002.6
В 4 10 км 8/2 1230 м
[Ac]
+20.0 +16.0 78 +23 +23 комфорт 1012.0 1001.6
Ю 3 10 км дождь 10/10 1350 м
[Ns]
+20.0 +17.0 83 +23 +23 комфорт 1011.0 1000.6
ЮВ 3 7000 м слаб. дождь 10/8 1350 м
[Ac Ns]
+20.0 +18.0 88 +23 +23 комфорт 1011.0 1000.6
ЮВ 3 10 км слаб. дождь 10/8 600 м
[Ac Ns]
+21.0 +18.0 83 +26 +26 душно 1011.0 1000.7
ЮВ 4 6000 м дождь 10/10 750 м
[Ns]
+20.0 +18.0 88 +23 +23 комфорт 1010.0 999.7
ЮВ 5 10 км дождь 10/10 750 м
[Ns]
+19.0 +18.0 94 +20 +20 1009.0 998.6
ЮВ 5 10 км 10/8 1200 м
[Ac]
+20.0 +17.0 83 +23 +23 комфорт 1009.0 998.7
Ю 3 10 км 10/5 1500 м
[Ac]
+19.0 +16.0 83 +21 +21 комфорт 1009.0 998.6
Ю 3 10 км дождь 10/10 1050 м
[Ns]
+19.0 +17.0 88 +21 +21 комфорт 1009.0 998.6
В 2 н/о слаб. дождь 10/10 1050 м
[Ns]
+18.0 +17.0 94 +19 +19 1008.0 997.6
ЮВ 3 10 км слаб. дождь 10/10 1050 м
[Ns]
+19.0 +17.0 88 +21 +21 комфорт 1007.0 996.6
ЮВ 6 10 км слаб. дождь 10/10 750 м
[Ns]
+19.0 +15.0 78 +20 +20 1006.0 995.6
ЮВ 7 10 км дождь 10/10 750 м
[Ns]
+19.0 +16.0 83 +20 +20 1006.0 995.6
ЮВ 6 10 км слаб. дождь 10/10 150 м
[Ns]
+19.0 +15.0 78 +20 +20 1005.0 994.7
ЮВ 5 н/о слаб. дождь 10/10 900 м
[Ns]
+18.0 +16.0 88 +18 +18 1005.0 994.6
В 2 н/о сильн. дождь 10/10 210 м
[Ns]
+19.0 +17.0 88 +21 +21 комфорт 1005.0 994.7
В 2 10 км слаб. дождь 8/8 300 м
[Ns]
+19.0 +17.0 88 +21 +21 комфорт 1004.0 993.7
В 3 10 км 8/8 690 м +19.0 +18.0 94 +21 +21 комфорт 1004.0 993.7
ЮВ 2 10 км 8/8 750 м +19.0 +17.0 88 +21 +21 комфорт 1005.0 994.7
ЮВ 3 10 км 8/5 750 м
[Ac]
+20.0 +18.0 88 +23 +23 комфорт 1005.0 994.7
ЮВ 3 10 км 8/8 900 м +22.0 +19.0 83 +27 +27 душно 1005.0 994.8
ЮВ 5 10 км 8/5 450 м
[Ac]
+23.0 +18.0 73 +28 +28 душно 1005.0 994.8
Ю 4 10 км 8/5 690 м
[Ac]
+24.0 +17.0 65 +28 +28 душно 1005.0 994.8
ЮЗ 4 10 км 8/5 450 м
[Ac]
+25.0 +15.0 54 +28 +28 жарко 1005.0 994.9
нст 3 10 км 8/0 2040 м
[Ac]
+25.0 +12.0 44 +27 +27 жарко 1005.0 994.9
ЮЗ 3 10 км дождь 8/8 720 м
[Ac Ns]
+23.0 +14.0 57 +26 +26 жарко 1005.0 994.8
СВ 3 10 км 8/2 1710 м
[Ac]
+21.0 +16.0 73 +25 +25 комфорт 1005.0 994.7
нст 1 10 км 8/2 1200 м
[Ac]
+23.0 +17.0 69 +28 +28 душно 1005.0 994.8
нст 1 10 км гроза без осадков 8/8 450 м
[Cb]
+24.0 +16.0 61 +27 +27 жарко 1004.0 993.8
Ю 4 10 км 8/8 450 м
[Ac]
+20.0 +17.0 83 +23 +23 комфорт 1005.0 994.7
ЮВ 4 10 км гроза, ливневой дождь 8/8 450 м
[Ac Cb]
+17.0 +15.0 88 +17 +17 1005.0 994.6
В 3 10 км 8/8 810 м
[Ac]
+17.0 +16.0 94 +17 +17 1006.0 995.6
ЮВ 2 10 км 8/8 720 м +16.0 +16.0 100 +16 +16 1006.0 995.5
Ю 3 10 км 8/2 780 м
[Ac]
+16.0 +15.0 94 +15 +15 1006.0 995.5
Ю 2 10 км 8/0 2700 м
[Ac]
+17.0 +15.0 88 +17 +17 1007.0 996.6
Ю 2 10 км нет нижн обл +16.0 +14.0 88 +16 +16 1006.0 995.5
ЮВ 3 10 км нет нижн обл +17.0 +15.0 88 +17 +17 1006.0 995.6
Ю 2 10 км 5/0 2160 м
[Ac]
+16.0 +14.0 88 +16 +16 1006.0 995.5
ЮВ 2 10 км 8/2 1950 м
[Ac]
+17.0 +15.0 88 +17 +17 1006.0 995.6
Ю 2 10 км 5/2 1950 м
[Ac]
+17.0 +15.0 88 +17 +17 1006.0 995.6
ЮВ 2 10 км 5/2 1800 м
[Ac]
+16.0 +14.0 88 +16 +16 1006.0 995.5
ЮВ 3 10 км 8/0 2700 м
[Ac]
+16.0 +14.0 88 +16 +16 1006.0 995.5
нст 1 10 км 8/0 2100 м
[Ac]
+16.0 +14.0 88 +17 +17 1006.0 995.5
Ю 3 10 км 8/0 2580 м
[Ac]
+18.0 +15.0 83 +18 +18 1006.0 995.6
Ю 3 10 км 8/5 1860 м
[Ac]
+19.0 +16.0 83 +21 +21 комфорт 1006.0 995.6
Ю 4 10 км 8/8 1050 м +21.0 +16.0 73 +25 +25 комфорт 1006.0 995.7
ЮВ 4 10 км 8/5 1080 м
[Ac]
+24.0 +15.0 57 +27 +27 жарко 1007.0 996.8
Ю 7 10 км 8/8 1290 м +25.0 +15.0 54 +28 +28 жарко 1007.0 996.8
ЮЗ 4 10 км 8/8 1200 м +23.0 +15.0 61 +27 +27 душно 1006.0 995.8
ЮЗ 6 10 км 8/8 1050 м +25.0 +17.0 61 +29 +29 душно 1007.0 996.9
ЮЗ 3 10 км 8/8 900 м +25.0 +13.0 47 +27 +27 жарко 1006.0 995.8
З 3 10 км 5/2 1290 м
[Ac]
+24.0 +11.0 44 +25 +25 комфорт 1006.0 995.8
З 2 10 км 8/2 1650 м
[Ac]
+23.0 +11.0 47 +25 +25 комфорт 1006.0 995.8
СЗ 3 10 км 8/8 1650 м +22.0 +13.0 57 +25 +25 комфорт 1006.0 995.7
нст 2 10 км 8/5 1500 м
[Ac]
+20.0 +14.0 68 +23 +23 комфорт 1006.0 995.7
нст 1 10 км 8/8 1800 м +20.0 +14.0 68 +23 +23 комфорт 1007.0 996.7
ЮВ 2 10 км 5/5 1500 м +19.0 +15.0 78 +21 +21 комфорт 1007.0 996.6
нст 1 10 км 5/2 1500 м
[Ac]
+18.0 +14.0 77 +19 +19 1007.0 996.6
ЮВ 2 10 км 5/2 1500 м
[Ac]
+17.0 +15.0 88 +17 +17 1007.0 996.6
ЮВ 2 10 км 10/2 1350 м
[Ac]
+17.0 +15.0 88 +17 +17 1007.0 996.6
Ю 2 10 км нет нижн обл +17.0 +14.0 82 +17 +17 1007.0 996.6
Ю 2 10 км нет нижн обл +17.0 +13.0 77 +17 +17 1007.0 996.6
нст 1 10 км 10/8 1230 м
[Ac]
+17.0 +14.0 82 +18 +18 1007.0 996.6
ЮВ 2 10 км слаб. дождь 10/8 1200 м
[Ac Ns]
+17.0 +15.0 88 +17 +17 1007.0 996.6
ЮВ 3 10 км 5/2 780 м
[Ac]
+17.0 +15.0 88 +17 +17 1007.0 996.6
Ю 3 10 км 5/2 780 м
[Ac]
+17.0 +14.0 82 +17 +17 1007.0 996.6
Ю 2 10 км 8/5 1920 м
[Ac]
+17.0 +15.0 88 +17 +17 1007.0 996.6
Ю 2 10 км 8/8 990 м
[Ac]
+19.0 +16.0 83 +21 +21 комфорт 1007.0 996.6
Ю 3 10 км 8/5 1350 м
[Ac]
+21.0 +16.0 73 +25 +25 комфорт 1007.0 996.7
Ю 3 10 км 8/5 1650 м
[Ac]
+24.0 +17.0 65 +28 +28 душно 1008.0 997.8
ЮВ 4 10 км 8/5 1050 м
[Ac]
+24.0 +15.0 57 +27 +27 жарко 1008.0 997.8
Ю 5 10 км 8/8 1200 м
[Ac]
+25.0 +15.0 54 +28 +28 жарко 1008.0 997.8
Ю 4 10 км 8/8 900 м
[Ac]
+25.0 +16.0 57 +28 +28 жарко 1008.0 997.8
Ю 5 10 км 8/5 1050 м
[Ac]
+25.0 +14.0 50 +27 +27 жарко 1008.0 997.8
В 3 10 км 8/5 900 м
[Ac]
+24.0 +17.0 65 +28 +28 душно 1008.0 997.8
ЮВ 2 10 км 5/2 1410 м
[Ac]
+25.0 +15.0 54 +28 +28 жарко 1008.0 997.8
В 4 10 км 8/5 900 м
[Ac]
+23.0 +15.0 61 +27 +27 душно 1008.0 997.8
ЮВ 2 10 км 8/5 1110 м
[Ac]
+22.0 +16.0 69 +26 +26 душно 1008.0 997.7
Ю 3 10 км 8/5 1080 м
[Ac]
+21.0 +17.0 78 +25 +25 комфорт 1009.0 998.7
Ю 3 10 км 8/5 1050 м
[Ac]
+20.0 +15.0 73 +23 +23 комфорт 1009.0 998.6
ЮВ 3 10 км 8/5 1200 м
[Ac]
+20.0 +16.0 78 +23 +23 комфорт 1010.0 999.6
Ю 3 10 км 5/0 2280 м
[Ac]
+19.0 +16.0 83 +21 +21 комфорт 1010.0 999.6
Ю 3 10 км 2/0 3000 м
[Ac]
+17.0 +14.0 82 +17 +17 1010.0 999.5
ЮВ 2 10 км нет нижн обл +18.0 +15.0 83 +19 +19 1011.0 1000.6
Ю 3 10 км 5/0 2520 м
[Ac]
+17.0 +14.0 82 +17 +17 1011.0 1000.5
Ю 2 10 км 8/0 2220 м
[Ac]
+17.0 +15.0 88 +17 +17 1011.0 1000.5
нст 1 10 км 8/0 2340 м
[Ac]
+18.0 +14.0 77 +19 +19 1011.0 1000.6
Ю 2 10 км 2/0 2100 м
[Ac]
+17.0 +14.0 82 +17 +17 1011.0 1000.5
Ю 2 10 км 8/2 1080 м
[Ac]
+15.0 +14.0 94 +15 +15 1011.0 1000.4
Ю 2 10 км 5/5 1140 м +16.0 +14.0 88 +16 +16 1011.0 1000.5
В 2 10 км 2/2 1200 м +17.0 +14.0 82 +17 +17 1012.0 1001.5
нст 1 10 км 8/5 900 м
[Ac]
+18.0 +15.0 83 +19 +19 1013.0 1002.5
нст 1 10 км 8/8 900 м +20.0 +16.0 78 +24 +24 комфорт 1014.0 1003.6
ЮВ 4 10 км 5/5 900 м +24.0 +17.0 65 +28 +28 душно 1014.0 1003.7
Ю 5 10 км 5/5 1200 м +26.0 +17.0 58 +30 +30 душно 1014.0 1003.8
Ю 6 10 км 5/5 1050 м +25.0 +15.0 54 +28 +28 жарко 1015.0 1004.8
Ю 5 10 км 8/5 1050 м
[Ac]
+28.0 +16.0 48 +31 +31 душно 1015.0 1004.9
нст 4 10 км 5/5 1440 м +28.0 +15.0 45 +31 +31 душно 1015.0 1004.9
ЮЗ 4 10 км 5/2 1200 м
[Ac]
+27.0 +16.0 51 +30 +30 душно 1016.0 1005.8
ЮЗ 5 10 км 2/2 1200 м +26.0 +14.0 48 +28 +28 жарко 1016.0 1005.8
ЮЗ 3 10 км 2/2 1200 м +27.0 +13.0 42 +29 +29 жарко 1016.0 1005.8
Местоположение метеостанции Тирана аэропорт (Албания): широта 41.33 долгота 19.78 высота над уровнем моря 89 м.
В архиве по умолчанию представлена погода в Тирана аэропорту за последнюю неделю. Архивные данные за месяц целиком и за предыдущие месяцы, начиная с января 2011 года, Вы можете получить, выбрав интересующий диапазон дат из раскрывающегося списка и нажав кнопку "Найти!".
*Определитесь, кто Вы:
Внимание! Время в таблицах - всемирное. Для получения местного времени необходимо прибавить поправку, которая равна 1 ч.
Смотрите также архив погоды в соседних городах и на ближайших метеорологических станциях:
Партнеры нашего сайта:      
Пояснения к столбцам:
  • Ветер - указаны скорость ветра в м/с - средняя за 10 мин, порывы в срок и между сроками (в фигурных скобках) и направление, откуда дует ветер: С - северный,
  • СВ - северо-восточный, В - восточный, ЮВ - юго-восточный, Ю - южный, ЮЗ - юго-западный, З - западный, СЗ - северо-западный.
  • Видимость - горизонтальная дальность видимости в метрах или километрах. При видимости от 1 до 10 км при отсутствии осадков обычно наблюдается дымка, при ухудшении видимости до 1 км и менее - туман. В сухую погоду видимость может ухудшаться дымом, пылью или мглою.
  • Явления - указаны атмосферные явления, наблюдавшиеся в срок или в последний час перед сроком; фигурными скобками обозначены явления, наблюдавшиеся между сроками (за 1-3 часа до срока); квадратными скобками обозначены град или гололедные отложения с указанием их диаметра в мм.
  • Облачность - указаны через наклонную черту общая и нижняя облачность в баллах и высота нижней границы облаков в метрах; квадратными скобками обозначены формы облаков: Ci - перистые, Cs - перисто-слоистые, Cc - перисто-кучевые, Ac - высококучевые, As - высокослоистые, Sc - слоисто-кучевые, Ns - слоисто-дождевые, Cu - кучевые, Cb - кучево-дождевые. Подробнее классификацию облаков см. в Атласе облаков (PDF).
  • T - Температура воздуха - температура, измеренная на высоте 2 м над землей.
  • Td - Температура точки росы - температура, при понижении до которой содержащийся в воздухе водяной пар достигнет насыщения.
  • f - Относительная влажность воздуха - влажноcть воздуха, измеренная на высоте 2 м над землей.
  • Te - Эффективная температура - температура, которую ощущает одетый по сезону человек в тени. Характеристика душности погоды. При расчете учитывается влияние влажности воздуха и скорости ветра на теплоощущения человека.
  • Tes - Эффективная температура на солнце - температура, которую ощущает человек, с поправкой на солнечный нагрев. Характеристика знойности погоды. Зависит от высоты солнца над горизонтом, облачности и скорости ветра. Ночью, в пасмурную погоду, а также при ветре 12 м/с и более поправка равна нулю.
  • P - Атмосферное давление - приведенное к уровню моря атмосферное давление.
  • Po - Атмосферное давление - измеренное на уровне метеостанции атмосферное давление.
  • Tmin - Минимальная температура - минимум температуры воздуха на высоте 2 м над землей.
  • Tmax - Максимальная температура - максимум температуры воздуха на высоте 2 м над землей.
  • R - Количество осадков - Количество выпавших осадков за период времени, мм. При наведении курсора мыши на число - период времени, за который выпало указанное количество осадков.
  • R24 - Количество осадков - Количество выпавших осадков за 24 часа, мм.
  • S - Снежный покров - Высота снежного покрова, см. При наведении курсора мыши на число - состояние снежного покрова и степень покрытия местности в баллах.